Flag for Austria Weather past 2 weeks in Enns, Upper Austria, Austria

Now
43 °F

Light rain. Overcast.


Feels Like: 38 °F
Forecast: 36 / 49 °F
Wind: 9 mph from West

Location: Linz / Hoersching-Flughafen

Current Time: Mar 27, 2015 at 1:28:01 AM

Latest Report: Mar 27, 2015 at 1:00 AM


Visibility: 4 mi

Pressure: 29.89 "Hg

Humidity: 88%

Dew point: 40 °F

Location of EnnsLocation

Historic Weather in Enns — Graph

°F

Enns temperature yesterday

Maximum temperature yesterday: 51 °F (at 12:00 AM)
Minimum temperature yesterday: 44 °F (at 7:00 AM)
Average temperature yesterday: 48 °F

Past Weeks' High & Low Weather Summary

 TemperatureHumidityPressure
High60 °F (Mar 16, 2:00 PM)100% (Mar 24, 7:00 AM)30.43 "Hg (Mar 24, 7:00 AM)
Low28 °F (Mar 21, 7:00 AM)22% (Mar 19, 3:00 PM)29.59 "Hg (Mar 25, 4:00 PM)
Average44 °F66%30.13 "Hg
* Reported Midnight between Mar 11 and Mar 12 — Midnight between Mar 26 and Mar 27, Enns, Weather by CustomWeather, © 2015

Note: Actual official high and low records may vary slightly from our data, if they occured in-between our weather recording intervals... More about our weather records

Advertising

Enns weather history for previous 24 hours

 ConditionsComfort  
Time TempWeatherWind HumidityBarometerVisibility
12:00 AM
Fri, Mar 27
44 °FLight rain. Overcast.8 mph92%29.88 "Hg3 mi
11:00 PM
Thu, Mar 26
44 °FLight rain. Overcast.6 mph92%29.87 "Hg3 mi
10:00 PM44 °FDrizzle. Overcast.9 mph90%29.86 "Hg3 mi
9:00 PM45 °FDrizzle. Overcast.8 mph87%29.85 "Hg3 mi
8:00 PM46 °FOvercast.8 mph87%29.83 "Hg3 mi
7:00 PM47 °FLight rain. Overcast.7 mph85%29.82 "Hg3 mi
6:00 PM48 °FOvercast.6 mph77%29.80 "Hg2 mi
5:00 PM49 °FOvercast.7 mph71%29.78 "Hg3 mi
4:00 PM50 °FOvercast.7 mph70%29.78 "Hg4 mi
3:00 PM50 °FOvercast.7 mph69%29.78 "Hg3 mi
2:00 PM50 °FOvercast.7 mph72%29.78 "Hg3 mi
1:00 PM49 °FLight rain. Overcast.6 mph76%29.79 "Hg2 mi
12:00 PM49 °FLight rain. Overcast.8 mph75%29.79 "Hg2 mi
11:00 AM50 °FLight rain. Overcast.8 mph73%29.79 "Hg3 mi
10:00 AM49 °FOvercast.8 mph73%29.78 "Hg3 mi
9:00 AM49 °FOvercast.9 mph75%29.77 "Hg3 mi
8:00 AM48 °FOvercast.8 mph80%29.74 "Hg3 mi
7:00 AM44 °FOvercast.N/A92%29.72 "Hg4 mi
6:00 AM46 °FOvercast.N/A90%29.69 "Hg5 mi
5:00 AM47 °FOvercast.N/A86%29.66 "Hg6 mi
4:00 AM48 °FPassing clouds.N/A84%29.63 "Hg7 mi
3:00 AM49 °FPassing clouds.5 mph78%29.62 "Hg12 mi
2:00 AM51 °FPassing clouds.6 mph73%29.62 "Hg22 mi
1:00 AM51 °FOvercast.7 mph68%29.62 "Hg28 mi
Weather by CustomWeather, © 2015

See weather overviewHow to use our weather pages